Zurück zum Katalog

GAOFEN 13 02

AktivWissenschaftGEO
NORAD 55912·PAYLOAD·🇨🇳 China

Gestartet Mar 17, 2023 von Xichang Satellite Launch Center

Loading…

TLE

AktuellSource: Space-Track

Epoche: Sep 14, 2026, 21:21 UTC

1 55912U 23036A   26257.88958727 -.00000227  00000-0  00000-0 0  9994
2 55912   1.0057  12.2633 0003742 306.8284 143.1738  1.00268008 12994

Verfolge GAOFEN 13 02 in Echtzeit mit AllMySat

Download on the App Store